This is the latest recevied weather packets stored in our database for station/object EA3FHP. If no packets are shown the sender has not sent any weather packets the latest 10 day(s).
| Time | Temp. | Humidity | Pressure | Rain* | Wind** | Luminosity | Snow |
|---|---|---|---|---|---|---|---|
| 1777753203 | 13.89° C | 73% | 1020.8 hPa | 0 mm | - | - | - |
| 1777752603 | 13.89° C | 73% | 1020.7 hPa | 0 mm | - | - | - |
| 1777752003 | 13.89° C | 72% | 1021.1 hPa | 0 mm | - | - | - |
| 1777751403 | 14.44° C | 70% | 1020.9 hPa | 0 mm | - | - | - |
| 1777750803 | 14.44° C | 70% | 1020.8 hPa | 0 mm | - | - | - |
| 1777750203 | 14.44° C | 68% | 1021.1 hPa | 0 mm | - | - | - |
| 1777749603 | 14.44° C | 68% | 1020.6 hPa | 0 mm | - | - | - |
| 1777749003 | 14.44° C | 67% | 1020.7 hPa | 0 mm | - | - | - |
| 1777748403 | 15° C | 70% | 1020.9 hPa | 0 mm | - | - | - |
| 1777747803 | 15° C | 67% | 1020.6 hPa | 0 mm | - | - | - |
| 1777747203 | 15° C | 70% | 1020.8 hPa | 0 mm | - | - | - |
| 1777746603 | 15° C | 70% | 1020.4 hPa | 0 mm | - | - | - |
| 1777746003 | 15.56° C | 70% | 1020.2 hPa | 0 mm | - | - | - |
| 1777745403 | 16.11° C | 66% | 1020.4 hPa | 0 mm | - | - | - |
| 1777744803 | 16.11° C | 67% | 1020.5 hPa | 0 mm | - | - | - |
| 1777744203 | 16.67° C | 68% | 1020.4 hPa | 0 mm | - | - | - |
| 1777743603 | 16.67° C | 68% | 1020.2 hPa | 0 mm | - | - | - |
| 1777743003 | 17.22° C | 69% | 1020.4 hPa | 0 mm | - | - | - |
| 1777742403 | 17.22° C | 65% | 1020.5 hPa | 0 mm | - | - | - |
| 1777741803 | 17.22° C | 63% | 1020.7 hPa | 0 mm | - | - | - |
| 1777741203 | 17.22° C | 61% | 1021.2 hPa | 0 mm | - | - | - |
| 1777740603 | 17.22° C | 60% | 1021.4 hPa | 0 mm | - | - | - |
| 1777740003 | 17.22° C | 59% | 1021.4 hPa | 0 mm | - | - | - |
| 1777739403 | 17.78° C | 58% | 1021.3 hPa | 0 mm | - | - | - |
| 1777738803 | 18.33° C | 59% | 1021.3 hPa | 0 mm | - | - | - |
* Rain latest hour (hover to see other rain measurements)
** Current wind speed in m/s (hover to see current wind gust speed)